Time,TemperatureF,DewpointF,PressureIn,WindDirection,WindDirectionDegrees,WindSpeedMPH,WindSpeedGustMPH,Humidity,HourlyPrecipIn,Conditions,Clouds,dailyrainin,SolarRadiationWatts/m^2,SoftwareType,DateUTC
2013-04-14 00:03:00,41.0,28.0,-100.00,WNW,301,3.0,8.0,59,0.00,,,0.00,0.000000,,2013-04-14 04:03:00,
2013-04-14 00:33:00,39.0,28.0,-100.00,ENE,70,2.0,8.0,65,0.00,,,0.00,0.000000,,2013-04-14 04:33:00,
2013-04-14 00:43:00,39.0,28.0,-100.00,ENE,70,2.0,8.0,65,0.00,,,0.00,0.000000,,2013-04-14 04:43:00,
2013-04-14 00:53:00,39.0,28.0,-100.00,ENE,70,2.0,8.0,65,0.00,,,0.00,0.000000,,2013-04-14 04:53:00,
2013-04-14 01:03:00,39.0,28.0,-100.00,ENE,70,2.0,8.0,65,0.00,,,0.00,0.000000,,2013-04-14 05:03:00,
2013-04-14 01:32:00,40.0,30.0,-100.00,WNW,297,4.0,7.0,68,0.00,,,0.00,0.000000,,2013-04-14 05:32:00,
2013-04-14 01:43:00,40.0,30.0,-100.00,WNW,297,4.0,7.0,68,0.00,,,0.00,0.000000,,2013-04-14 05:43:00,
2013-04-14 01:53:00,40.0,30.0,-100.00,WNW,297,4.0,7.0,68,0.00,,,0.00,0.000000,,2013-04-14 05:53:00,
2013-04-14 02:02:00,40.0,30.0,-100.00,WNW,297,4.0,7.0,68,0.00,,,0.00,0.000000,,2013-04-14 06:02:00,
2013-04-14 02:32:00,41.0,31.0,-100.00,WNW,292,4.0,10.0,66,0.00,,,0.00,0.000000,,2013-04-14 06:32:00,
2013-04-14 02:42:00,41.0,31.0,-100.00,WNW,292,4.0,10.0,66,0.00,,,0.00,0.000000,,2013-04-14 06:42:00,
2013-04-14 02:53:00,41.0,31.0,-100.00,WNW,292,4.0,10.0,66,0.00,,,0.00,0.000000,,2013-04-14 06:53:00,
2013-04-14 03:03:00,41.0,31.0,-100.00,WNW,292,4.0,10.0,66,0.00,,,0.00,0.000000,,2013-04-14 07:03:00,
2013-04-14 03:33:00,41.0,31.0,-100.00,WNW,297,5.0,11.0,66,0.00,,,0.00,0.000000,,2013-04-14 07:33:00,
2013-04-14 03:42:00,41.0,31.0,-100.00,WNW,297,5.0,11.0,66,0.00,,,0.00,0.000000,,2013-04-14 07:42:00,
2013-04-14 03:52:00,41.0,31.0,-100.00,WNW,297,5.0,11.0,66,0.00,,,0.00,0.000000,,2013-04-14 07:52:00,
2013-04-14 04:03:00,41.0,31.0,-100.00,WNW,297,5.0,11.0,66,0.00,,,0.00,0.000000,,2013-04-14 08:03:00,
2013-04-14 04:33:00,39.0,29.0,-100.00,WNW,294,7.0,13.0,67,0.00,,,0.00,0.000000,,2013-04-14 08:33:00,
2013-04-14 04:43:00,39.0,29.0,-100.00,WNW,294,7.0,13.0,67,0.00,,,0.00,0.000000,,2013-04-14 08:43:00,
2013-04-14 04:52:00,39.0,29.0,-100.00,WNW,294,7.0,13.0,67,0.00,,,0.00,0.000000,,2013-04-14 08:52:00,
2013-04-14 05:03:00,39.0,29.0,-100.00,WNW,294,7.0,13.0,67,0.00,,,0.00,0.000000,,2013-04-14 09:03:00,
2013-04-14 05:33:00,35.0,22.0,-100.00,WNW,282,4.0,15.0,58,0.00,,,0.00,0.000000,,2013-04-14 09:33:00,
2013-04-14 05:43:00,35.0,22.0,-100.00,WNW,282,4.0,15.0,58,0.00,,,0.00,0.000000,,2013-04-14 09:43:00,
2013-04-14 05:54:00,35.0,22.0,-100.00,WNW,282,4.0,15.0,58,0.00,,,0.00,0.000000,,2013-04-14 09:54:00,
2013-04-14 06:03:00,35.0,22.0,-100.00,WNW,282,4.0,15.0,58,0.00,,,0.00,0.000000,,2013-04-14 10:03:00,
2013-04-14 06:33:00,33.0,22.0,-100.00,WNW,299,3.0,11.0,64,0.00,,,0.00,0.000000,,2013-04-14 10:33:00,
2013-04-14 06:43:00,33.0,22.0,-100.00,WNW,299,3.0,11.0,64,0.00,,,0.00,0.000000,,2013-04-14 10:43:00,
2013-04-14 06:53:00,33.0,22.0,-100.00,WNW,299,3.0,11.0,64,0.00,,,0.00,0.000000,,2013-04-14 10:53:00,
2013-04-14 07:02:00,33.0,22.0,-100.00,WNW,299,3.0,11.0,64,0.00,,,0.00,0.000000,,2013-04-14 11:02:00,
2013-04-14 07:33:00,31.0,23.0,-100.00,WNW,287,3.0,5.0,71,0.00,,,0.00,9.000000,,2013-04-14 11:33:00,
2013-04-14 07:42:00,31.0,23.0,-100.00,WNW,287,3.0,5.0,71,0.00,,,0.00,9.000000,,2013-04-14 11:42:00,
2013-04-14 07:53:00,31.0,23.0,-100.00,WNW,287,3.0,5.0,71,0.00,,,0.00,9.000000,,2013-04-14 11:53:00,
2013-04-14 08:02:00,31.0,23.0,-100.00,WNW,287,3.0,5.0,71,0.00,,,0.00,9.000000,,2013-04-14 12:02:00,
2013-04-14 08:32:00,37.0,27.0,-100.00,WNW,300,4.0,10.0,67,0.00,,,0.00,84.000000,,2013-04-14 12:32:00,
2013-04-14 08:42:00,37.0,27.0,-100.00,WNW,300,4.0,10.0,67,0.00,,,0.00,84.000000,,2013-04-14 12:42:00,
2013-04-14 08:52:00,37.0,27.0,-100.00,WNW,300,4.0,10.0,67,0.00,,,0.00,84.000000,,2013-04-14 12:52:00,
2013-04-14 09:02:00,37.0,27.0,-100.00,WNW,300,4.0,10.0,67,0.00,,,0.00,84.000000,,2013-04-14 13:02:00,
2013-04-14 09:33:00,41.0,27.0,-100.00,WNW,291,5.0,11.0,57,0.00,,,0.00,326.000000,,2013-04-14 13:33:00,
2013-04-14 09:43:00,41.0,27.0,-100.00,WNW,291,5.0,11.0,57,0.00,,,0.00,326.000000,,2013-04-14 13:43:00,
2013-04-14 09:52:00,41.0,27.0,-100.00,WNW,291,5.0,11.0,57,0.00,,,0.00,326.000000,,2013-04-14 13:52:00,
2013-04-14 10:02:00,41.0,27.0,-100.00,WNW,291,5.0,11.0,57,0.00,,,0.00,326.000000,,2013-04-14 14:02:00,
2013-04-14 10:32:00,44.0,27.0,-100.00,WNW,303,7.0,14.0,50,0.00,,,0.00,529.000000,,2013-04-14 14:32:00,
2013-04-14 10:42:00,44.0,27.0,-100.00,WNW,303,7.0,14.0,50,0.00,,,0.00,529.000000,,2013-04-14 14:42:00,
2013-04-14 10:53:00,44.0,27.0,-100.00,WNW,303,7.0,14.0,50,0.00,,,0.00,529.000000,,2013-04-14 14:53:00,
2013-04-14 11:03:00,44.0,27.0,-100.00,WNW,303,7.0,14.0,50,0.00,,,0.00,529.000000,,2013-04-14 15:03:00,
2013-04-14 11:34:00,47.0,27.0,-100.00,NW,310,6.0,15.0,46,0.00,,,0.00,736.000000,,2013-04-14 15:34:00,
2013-04-14 11:44:00,47.0,27.0,-100.00,NW,310,6.0,15.0,46,0.00,,,0.00,736.000000,,2013-04-14 15:44:00,
2013-04-14 11:53:00,47.0,27.0,-100.00,NW,310,6.0,15.0,46,0.00,,,0.00,736.000000,,2013-04-14 15:53:00,
2013-04-14 12:05:00,47.0,27.0,-100.00,NW,310,6.0,15.0,46,0.00,,,0.00,736.000000,,2013-04-14 16:05:00,
2013-04-14 12:33:00,49.0,26.0,-100.00,NW,305,7.0,16.0,40,0.00,,,0.00,784.000000,,2013-04-14 16:33:00,
2013-04-14 12:43:00,49.0,26.0,-100.00,NW,305,7.0,16.0,40,0.00,,,0.00,784.000000,,2013-04-14 16:43:00,
2013-04-14 12:53:00,49.0,26.0,-100.00,NW,305,7.0,16.0,40,0.00,,,0.00,784.000000,,2013-04-14 16:53:00,
2013-04-14 13:02:00,49.0,26.0,-100.00,NW,305,7.0,16.0,40,0.00,,,0.00,784.000000,,2013-04-14 17:02:00,
2013-04-14 13:33:00,51.0,26.0,-100.00,WNW,289,6.0,16.0,38,0.00,,,0.00,808.000000,,2013-04-14 17:33:00,
2013-04-14 13:43:00,51.0,26.0,-100.00,WNW,289,6.0,16.0,38,0.00,,,0.00,808.000000,,2013-04-14 17:43:00,
2013-04-14 13:53:00,51.0,26.0,-100.00,WNW,289,6.0,16.0,38,0.00,,,0.00,808.000000,,2013-04-14 17:53:00,
2013-04-14 14:03:00,51.0,26.0,-100.00,WNW,289,6.0,16.0,38,0.00,,,0.00,808.000000,,2013-04-14 18:03:00,
2013-04-14 14:33:00,52.0,25.0,-100.00,NW,318,6.0,16.0,35,0.00,,,0.00,592.000000,,2013-04-14 18:33:00,
2013-04-14 14:43:00,52.0,25.0,-100.00,NW,318,6.0,16.0,35,0.00,,,0.00,592.000000,,2013-04-14 18:43:00,
2013-04-14 14:54:00,52.0,25.0,-100.00,NW,318,6.0,16.0,35,0.00,,,0.00,592.000000,,2013-04-14 18:54:00,
2013-04-14 15:04:00,52.0,25.0,-100.00,NW,318,6.0,16.0,35,0.00,,,0.00,592.000000,,2013-04-14 19:04:00,
2013-04-14 15:33:00,55.0,26.0,-100.00,NW,309,7.0,19.0,33,0.00,,,0.00,807.000000,,2013-04-14 19:33:00,
2013-04-14 15:43:00,55.0,26.0,-100.00,NW,309,7.0,19.0,33,0.00,,,0.00,807.000000,,2013-04-14 19:43:00,
2013-04-14 15:53:00,55.0,26.0,-100.00,NW,309,7.0,19.0,33,0.00,,,0.00,807.000000,,2013-04-14 19:53:00,
2013-04-14 16:03:00,55.0,26.0,-100.00,NW,309,7.0,19.0,33,0.00,,,0.00,807.000000,,2013-04-14 20:03:00,
2013-04-14 16:33:00,55.0,28.0,-100.00,NW,304,6.0,17.0,35,0.00,,,0.00,586.000000,,2013-04-14 20:33:00,
2013-04-14 16:43:00,55.0,28.0,-100.00,NW,304,6.0,17.0,35,0.00,,,0.00,586.000000,,2013-04-14 20:43:00,
2013-04-14 16:53:00,55.0,28.0,-100.00,NW,304,6.0,17.0,35,0.00,,,0.00,586.000000,,2013-04-14 20:53:00,
2013-04-14 17:02:00,55.0,28.0,-100.00,NW,304,6.0,17.0,35,0.00,,,0.00,586.000000,,2013-04-14 21:02:00,
2013-04-14 17:33:00,55.0,29.0,-100.00,WNW,303,6.0,15.0,37,0.00,,,0.00,433.000000,,2013-04-14 21:33:00,
2013-04-14 17:43:00,55.0,29.0,-100.00,WNW,303,6.0,15.0,37,0.00,,,0.00,433.000000,,2013-04-14 21:43:00,
2013-04-14 17:53:00,55.0,29.0,-100.00,WNW,303,6.0,15.0,37,0.00,,,0.00,433.000000,,2013-04-14 21:53:00,
2013-04-14 18:03:00,55.0,29.0,-100.00,WNW,303,6.0,15.0,37,0.00,,,0.00,433.000000,,2013-04-14 22:03:00,
2013-04-14 18:33:00,54.0,30.0,-100.00,NW,307,4.0,12.0,39,0.00,,,0.00,252.000000,,2013-04-14 22:33:00,
2013-04-14 18:44:00,54.0,30.0,-100.00,NW,307,4.0,12.0,39,0.00,,,0.00,252.000000,,2013-04-14 22:44:00,
2013-04-14 18:53:00,54.0,30.0,-100.00,NW,307,4.0,12.0,39,0.00,,,0.00,252.000000,,2013-04-14 22:53:00,
2013-04-14 19:02:00,54.0,30.0,-100.00,NW,307,4.0,12.0,39,0.00,,,0.00,252.000000,,2013-04-14 23:02:00,
2013-04-14 19:33:00,52.0,29.0,-100.00,NW,304,3.0,7.0,41,0.00,,,0.00,67.000000,,2013-04-14 23:33:00,
2013-04-14 19:43:00,52.0,29.0,-100.00,NW,304,3.0,7.0,41,0.00,,,0.00,67.000000,,2013-04-14 23:43:00,
2013-04-14 19:53:00,52.0,29.0,-100.00,NW,304,3.0,7.0,41,0.00,,,0.00,67.000000,,2013-04-14 23:53:00,
2013-04-14 20:02:00,52.0,29.0,-100.00,NW,304,3.0,7.0,41,0.00,,,0.00,67.000000,,2013-04-15 00:02:00,
2013-04-14 20:33:00,49.0,31.0,-100.00,SSW,202,1.0,4.0,50,0.00,,,-99.99,9.000000,,2013-04-15 00:33:00,
2013-04-14 20:43:00,49.0,31.0,-100.00,SSW,202,1.0,4.0,50,0.00,,,-99.99,9.000000,,2013-04-15 00:43:00,
2013-04-14 20:53:00,49.0,31.0,-100.00,SSW,202,1.0,4.0,50,0.00,,,-99.99,9.000000,,2013-04-15 00:53:00,
2013-04-14 21:03:00,49.0,31.0,-100.00,SSW,202,1.0,4.0,50,0.00,,,-99.99,9.000000,,2013-04-15 01:03:00,
2013-04-14 21:33:00,46.0,28.0,-100.00,NNW,346,2.0,4.0,50,0.00,,,0.00,0.000000,,2013-04-15 01:33:00,
2013-04-14 21:43:00,46.0,28.0,-100.00,NNW,346,2.0,4.0,50,0.00,,,0.00,0.000000,,2013-04-15 01:43:00,
2013-04-14 21:52:00,46.0,28.0,-100.00,NNW,346,2.0,4.0,50,0.00,,,0.00,0.000000,,2013-04-15 01:52:00,
2013-04-14 22:03:00,46.0,28.0,-100.00,NNW,346,2.0,4.0,50,0.00,,,0.00,0.000000,,2013-04-15 02:03:00,
2013-04-14 22:32:00,45.0,29.0,-100.00,NNW,337,0.0,3.0,54,0.00,,,0.00,0.000000,,2013-04-15 02:32:00,
2013-04-14 22:42:00,45.0,29.0,-100.00,NNW,337,0.0,3.0,54,0.00,,,0.00,0.000000,,2013-04-15 02:42:00,
2013-04-14 22:53:00,45.0,29.0,-100.00,NNW,337,0.0,3.0,54,0.00,,,0.00,0.000000,,2013-04-15 02:53:00,
2013-04-14 23:03:00,45.0,29.0,-100.00,NNW,337,0.0,3.0,54,0.00,,,0.00,0.000000,,2013-04-15 03:03:00,
2013-04-14 23:33:00,43.0,28.0,-100.00,NW,320,1.0,2.0,56,0.00,,,0.00,0.000000,,2013-04-15 03:33:00,
2013-04-14 23:43:00,43.0,28.0,-100.00,NW,320,1.0,2.0,56,0.00,,,0.00,0.000000,,2013-04-15 03:43:00,
2013-04-14 23:55:00,43.0,28.0,-100.00,NW,320,1.0,2.0,56,0.00,,,0.00,0.000000,,2013-04-15 03:55:00,